When you browse on this site, cookies collect data to enhance your experience and personalize the content and advertising you see.
Visit our Privacy Policy to learn more. By continuing to use the site, you agree to this use of cookies and data.
  • En España
  • Lista de países
  • Para 7 días
  • Temperatura del agua
  • El tiempo en el mapa
  • Informadores
  • user-avatar
    Iniciar sesión

    Tiempo cada hora Caracas

    Hoy, 31 Mayo, Domingo

    Tiempo Temperatura Precipitaciones Viento Presión Humedad
    00:00 +18°C° 0 mm 2 mps 650 mmHg 95%
    01:00 +18°C° 0 mm 2 mps 650 mmHg 95%
    02:00 +18°C° 0 mm 2 mps 649 mmHg 95%
    03:00 +18°C° 0.1 mm 2 mps 649 mmHg 95%
    04:00 +18°C° 0.1 mm 2 mps 649 mmHg 95%
    05:00 +18°C° 0.1 mm 2 mps 649 mmHg 95%
    06:00 +18°C° 0.9 mm 2 mps 649 mmHg 93%
    07:00 +19°C° 0.9 mm 2 mps 650 mmHg 92%
    08:00 +19°C° 0.9 mm 2 mps 651 mmHg 90%
    09:00 +19°C° 1.4 mm 2 mps 651 mmHg 91%
    10:00 +20°C° 1.4 mm 1 mps 651 mmHg 91%
    11:00 +20°C° 1.4 mm 1 mps 651 mmHg 92%
    12:00 +21°C° 0.4 mm 1 mps 651 mmHg 89%
    13:00 +21°C° 0.4 mm 1 mps 651 mmHg 85%
    14:00 +22°C° 0.4 mm 1 mps 651 mmHg 82%
    15:00 +21°C° 0.7 mm 1 mps 650 mmHg 85%
    16:00 +21°C° 0.7 mm 1 mps 650 mmHg 89%
    17:00 +20°C° 0.7 mm 1 mps 649 mmHg 92%
    18:00 +19°C° 0.1 mm 1 mps 649 mmHg 91%
    19:00 +19°C° 0.1 mm 1 mps 650 mmHg 90%
    20:00 +19°C° 0.1 mm 1 mps 650 mmHg 89%
    21:00 +19°C° 0 mm 1 mps 650 mmHg 87%
    22:00 +19°C° 0 mm 1 mps 650 mmHg 86%
    23:00 +19°C° 0 mm 1 mps 650 mmHg 84%

    Mañana, 1 Junio, Lunes

    Tiempo Temperatura Precipitaciones Viento Presión Humedad
    00:00 +19°C° 0 mm 1 mps 650 mmHg 85%
    01:00 +18°C° 0 mm 2 mps 650 mmHg 86%
    02:00 +18°C° 0 mm 2 mps 649 mmHg 86%
    03:00 +17°C° 0 mm 2 mps 649 mmHg 88%
    04:00 +17°C° 0 mm 2 mps 649 mmHg 89%
    05:00 +17°C° 0 mm 2 mps 649 mmHg 90%
    06:00 +18°C° 0 mm 2 mps 650 mmHg 89%
    07:00 +18°C° 0 mm 2 mps 650 mmHg 88%
    08:00 +19°C° 0 mm 2 mps 651 mmHg 87%
    09:00 +21°C° 0.1 mm 2 mps 651 mmHg 80%
    10:00 +24°C° 0.1 mm 2 mps 652 mmHg 72%
    11:00 +25°C° 0.1 mm 2 mps 652 mmHg 65%
    12:00 +26°C° 0.4 mm 2 mps 652 mmHg 63%
    13:00 +26°C° 0.4 mm 2 mps 651 mmHg 61%
    14:00 +27°C° 0.4 mm 2 mps 651 mmHg 59%
    15:00 +26°C° 0.2 mm 2 mps 650 mmHg 64%
    16:00 +25°C° 0.2 mm 2 mps 650 mmHg 69%
    17:00 +24°C° 0.2 mm 2 mps 649 mmHg 74%
    18:00 +23°C° 0 mm 2 mps 649 mmHg 80%
    19:00 +20°C° 0 mm 2 mps 649 mmHg 86%
    20:00 +19°C° 0 mm 2 mps 649 mmHg 92%
    21:00 +18°C° 0 mm 2 mps 649 mmHg 92%
    22:00 +18°C° 0 mm 2 mps 650 mmHg 92%
    23:00 +18°C° 0 mm 2 mps 650 mmHg 92%

    Pasado mañana, 2 Junio, Martes

    Tiempo Temperatura Precipitaciones Viento Presión Humedad
    00:00 +17°C° 0 mm 2 mps 650 mmHg 92%
    01:00 +17°C° 0 mm 2 mps 649 mmHg 92%
    02:00 +17°C° 0 mm 2 mps 649 mmHg 93%
    03:00 +16°C° 0 mm 2 mps 649 mmHg 92%
    04:00 +16°C° 0 mm 2 mps 649 mmHg 92%
    05:00 +16°C° 0 mm 2 mps 649 mmHg 91%
    06:00 +17°C° 0 mm 2 mps 649 mmHg 88%
    07:00 +18°C° 0 mm 2 mps 650 mmHg 84%
    08:00 +20°C° 0 mm 2 mps 650 mmHg 81%
    09:00 +21°C° 0 mm 2 mps 651 mmHg 74%
    10:00 +24°C° 0 mm 3 mps 652 mmHg 66%
    11:00 +26°C° 0 mm 3 mps 652 mmHg 59%
    12:00 +26°C° 0.1 mm 3 mps 652 mmHg 59%
    13:00 +26°C° 0.1 mm 3 mps 651 mmHg 60%
    14:00 +26°C° 0.1 mm 3 mps 650 mmHg 61%
    15:00 +25°C° 0.1 mm 3 mps 650 mmHg 65%
    16:00 +24°C° 0.1 mm 3 mps 649 mmHg 69%
    17:00 +22°C° 0.1 mm 3 mps 649 mmHg 73%
    18:00 +20°C° 0 mm 3 mps 649 mmHg 78%
    19:00 +19°C° 0 mm 2 mps 649 mmHg 83%
    20:00 +17°C° 0 mm 2 mps 649 mmHg 88%
    21:00 +17°C° 0 mm 2 mps 649 mmHg 89%
    22:00 +17°C° 0 mm 2 mps 649 mmHg 89%
    23:00 +17°C° 0 mm 2 mps 649 mmHg 90%

    3 Junio, Miércoles

    Tiempo Temperatura Precipitaciones Viento Presión Humedad
    00:00 +16°C° 0 mm 2 mps 649 mmHg 88%
    01:00 +16°C° 0 mm 2 mps 648 mmHg 87%
    02:00 +16°C° 0 mm 2 mps 648 mmHg 85%
    03:00 +16°C° 0 mm 2 mps 648 mmHg 86%
    04:00 +16°C° 0 mm 2 mps 648 mmHg 86%
    05:00 +16°C° 0 mm 2 mps 648 mmHg 87%
    06:00 +17°C° 0 mm 2 mps 649 mmHg 83%
    07:00 +19°C° 0 mm 2 mps 650 mmHg 78%
    08:00 +20°C° 0 mm 2 mps 650 mmHg 74%
    09:00 +23°C° 0 mm 2 mps 651 mmHg 67%
    10:00 +25°C° 0 mm 3 mps 651 mmHg 59%
    11:00 +26°C° 0 mm 3 mps 652 mmHg 52%
    12:00 +27°C° 0 mm 3 mps 651 mmHg 51%
    13:00 +27°C° 0 mm 3 mps 651 mmHg 50%
    14:00 +28°C° 0 mm 3 mps 650 mmHg 48%
    15:00 +27°C° 0 mm 3 mps 650 mmHg 52%
    16:00 +26°C° 0 mm 3 mps 649 mmHg 55%
    17:00 +25°C° 0 mm 3 mps 649 mmHg 58%
    18:00 +22°C° 0 mm 3 mps 648 mmHg 67%
    19:00 +20°C° 0 mm 2 mps 648 mmHg 76%
    20:00 +18°C° 0 mm 2 mps 648 mmHg 85%
    21:00 +17°C° 0 mm 2 mps 648 mmHg 87%
    22:00 +17°C° 0 mm 2 mps 649 mmHg 89%
    23:00 +16°C° 0 mm 2 mps 649 mmHg 90%

    4 Junio, Jueves

    Tiempo Temperatura Precipitaciones Viento Presión Humedad
    00:00 +16°C° 0 mm 2 mps 648 mmHg 89%
    01:00 +16°C° 0 mm 2 mps 648 mmHg 87%
    02:00 +16°C° 0 mm 3 mps 647 mmHg 86%
    03:00 +16°C° 0 mm 2 mps 648 mmHg 86%
    04:00 +16°C° 0 mm 2 mps 648 mmHg 87%
    05:00 +16°C° 0 mm 2 mps 648 mmHg 88%
    06:00 +17°C° 0 mm 2 mps 649 mmHg 85%
    07:00 +18°C° 0 mm 2 mps 649 mmHg 82%
    08:00 +19°C° 0 mm 2 mps 650 mmHg 79%
    09:00 +23°C° 0 mm 2 mps 651 mmHg 67%
    10:00 +25°C° 0 mm 3 mps 651 mmHg 56%
    11:00 +27°C° 0 mm 3 mps 652 mmHg 45%
    12:00 +27°C° 0 mm 3 mps 651 mmHg 45%
    13:00 +28°C° 0 mm 3 mps 651 mmHg 45%
    14:00 +28°C° 0 mm 3 mps 651 mmHg 44%
    15:00 +27°C° 0 mm 3 mps 650 mmHg 49%
    16:00 +26°C° 0 mm 3 mps 649 mmHg 53%
    17:00 +25°C° 0 mm 2 mps 649 mmHg 58%
    18:00 +23°C° 0 mm 2 mps 649 mmHg 68%
    19:00 +20°C° 0 mm 2 mps 649 mmHg 79%
    20:00 +18°C° 0 mm 2 mps 649 mmHg 90%
    21:00 +18°C° 0 mm 2 mps 649 mmHg 91%
    22:00 +17°C° 0 mm 2 mps 649 mmHg 92%
    23:00 +17°C° 0 mm 2 mps 650 mmHg 93%

    5 Junio, Viernes

    Tiempo Temperatura Precipitaciones Viento Presión Humedad
    00:00 +17°C° 0 mm 2 mps 649 mmHg 92%
    01:00 +17°C° 0 mm 2 mps 649 mmHg 91%
    02:00 +16°C° 0 mm 2 mps 648 mmHg 90%
    03:00 +16°C° 0 mm 2 mps 649 mmHg 90%
    04:00 +16°C° 0 mm 2 mps 649 mmHg 91%
    05:00 +16°C° 0 mm 2 mps 649 mmHg 91%
    06:00 +18°C° 0 mm 2 mps 649 mmHg 86%
    07:00 +19°C° 0 mm 2 mps 650 mmHg 81%
    08:00 +20°C° 0 mm 2 mps 651 mmHg 77%
    09:00 +23°C° 0 mm 2 mps 651 mmHg 70%
    10:00 +25°C° 0 mm 3 mps 652 mmHg 63%
    11:00 +26°C° 0 mm 3 mps 652 mmHg 57%
    12:00 +26°C° 0.8 mm 3 mps 652 mmHg 60%
    13:00 +26°C° 0.8 mm 3 mps 651 mmHg 63%
    14:00 +26°C° 0.8 mm 3 mps 650 mmHg 65%
    15:00 +25°C° 1.6 mm 3 mps 650 mmHg 73%
    16:00 +24°C° 1.6 mm 3 mps 649 mmHg 80%
    17:00 +22°C° 1.6 mm 3 mps 649 mmHg 87%
    18:00 +21°C° 1 mm 3 mps 649 mmHg 89%
    19:00 +20°C° 1 mm 3 mps 649 mmHg 91%
    20:00 +19°C° 1 mm 3 mps 649 mmHg 93%
    21:00 +18°C° 0.3 mm 3 mps 650 mmHg 94%
    22:00 +18°C° 0.3 mm 3 mps 650 mmHg 95%
    23:00 +18°C° 0.3 mm 2 mps 650 mmHg 95%
    Mostrar más